Back to catalog

FENGYUN 1C DEB

AliveSSO
NORAD 29874·DEBRIS·🇨🇳 China

Launched May 10, 1999 from Taiyuan Satellite Launch Center

Loading…

Next Passes (next 24 hours)

TLE

FreshSource: Space-Track

Epoch: Sep 14, 2026, 16:01 UTC

1 29874U 99025FU  26257.66787478  .00003010  00000-0  10835-2 0  9993
2 29874  98.3645 149.4720 0096749 254.6540 133.6447 14.31858146  7887

Track FENGYUN 1C DEB in real time with AllMySat

Download on the App Store